Fowler, IL

11:40 PM CDT on September 28, 2016 (GMT -0500)
Quincy Regional-Baldwin

Weather History for KUIN - September, 2013

Change the Weather History Date:

Wednesday, September 11, 2013

  Actual Average Record
Temperature  
Mean Temperature 83 °F 68 °F  
Max Temperature 97 °F 79 °F 99 °F (1936)
Min Temperature 69 °F 58 °F 41 °F (1940)
Degree Days  
Heating Degree Days 0 1  
Month to date heating degree days 0 10  
Since 1 July heating degree days 6 15  
Cooling Degree Days 18 5  
Month to date cooling degree days 137 67  
Year to date cooling degree days 1143 1020  
Growing Degree Days 32 (Base 50)    
Moisture  
Dew Point 62 °F    
Average Humidity 51    
Maximum Humidity 74    
Minimum Humidity 27    
Precipitation  
Precipitation 0.18 in 0.11 in 3.10 in (2006)
Month to date precipitation 0.29 1.22  
Year to date precipitation 28.39 26.97  
Sea Level Pressure  
Sea Level Pressure 30.05 in    
Wind  
Wind Speed 8 mph (WSW)    
Max Wind Speed 17 mph    
Max Gust Speed 26 mph    
Visibility 10 miles    
Events Thunderstorm    
T = Trace of Precipitation, MM = Missing Value Source: NWS Daily Summary

Daily Weather History Graph

Daily Weather History Graph

Search for Another Location

Airport or City:

Trip Planner

Search our weather history database for the weather conditions in past years. The results will help you decide how hot, cold, wet, or windy it might be!

Date:

Astronomy

Sep. 11, 2013 Rise Set
Actual Time 6:42 AM CDT 7:19 PM CDT
Civil Twilight 6:14 AM CDT 7:46 PM CDT
Nautical Twilight 5:42 AM CDT 8:18 PM CDT
Astronomical Twilight 5:09 AM CDT 8:52 PM CDT
Moon 1:10 PM CDT (9/11) 11:16 PM CDT (9/11)
Length of Visible Light 13h 31m
Length of Day
12h 37m
Waxing Crescent, 39% of the Moon is Illuminated
Sep 11
Waxing Crescent
Sep 12
First Quarter
Sep 19
Full
Sep 26
Last Quarter
Oct 4
New

Hourly Weather History & Observations

Time (CDT) Temp. Heat Index Dew Point Humidity Pressure Visibility Wind Dir Wind Speed Gust Speed Precip Events Conditions
12:54 AM 73.0 °F - 63.0 °F 71% 30.04 in 10.0 mi SSW 6.9 mph - N/A   Clear
1:54 AM 73.0 °F - 62.1 °F 68% 30.04 in 10.0 mi SW 4.6 mph - N/A   Clear
2:54 AM 73.0 °F - 62.1 °F 68% 30.04 in 10.0 mi SW 5.8 mph - N/A   Clear
3:54 AM 71.1 °F - 62.1 °F 73% 30.05 in 10.0 mi SW 5.8 mph - N/A   Clear
4:54 AM 72.0 °F - 61.0 °F 68% 30.05 in 10.0 mi WSW 4.6 mph - N/A   Clear
5:54 AM 70.0 °F - 61.0 °F 73% 30.06 in 10.0 mi WSW 5.8 mph - N/A   Clear
6:54 AM 69.1 °F - 61.0 °F 75% 30.09 in 10.0 mi SSW 5.8 mph - N/A   Clear
7:54 AM 73.9 °F - 63.0 °F 68% 30.10 in 10.0 mi WSW 4.6 mph - N/A   Clear
8:54 AM 79.0 °F - 63.0 °F 58% 30.10 in 10.0 mi WSW 8.1 mph - N/A   Clear
9:54 AM 84.0 °F 84.9 °F 63.0 °F 49% 30.09 in 10.0 mi WSW 4.6 mph - N/A   Clear
10:54 AM 88.0 °F 88.4 °F 62.1 °F 42% 30.09 in 10.0 mi Variable 6.9 mph - N/A   Clear
11:54 AM 90.0 °F 90.3 °F 62.1 °F 39% 30.08 in 10.0 mi West 11.5 mph 16.1 mph N/A   Clear
12:54 PM 91.9 °F 92.5 °F 62.1 °F 37% 30.07 in 10.0 mi SW 10.4 mph - N/A   Clear
1:54 PM 95.0 °F 94.8 °F 60.1 °F 31% 30.05 in 10.0 mi West 5.8 mph 16.1 mph N/A   Clear
2:54 PM 96.1 °F 95.2 °F 57.9 °F 28% 30.02 in 10.0 mi SW 15.0 mph 20.7 mph N/A   Clear
3:54 PM 96.1 °F 95.2 °F 57.9 °F 28% 30.01 in 10.0 mi WSW 15.0 mph 19.6 mph N/A   Partly Cloudy
4:54 PM 96.1 °F 94.8 °F 57.0 °F 27% 30.00 in 10.0 mi WSW 12.7 mph 18.4 mph N/A   Clear
5:54 PM 93.9 °F 92.9 °F 57.9 °F 30% 29.99 in 10.0 mi SW 8.1 mph - N/A   Clear
6:51 PM 84.2 °F 85.6 °F 64.4 °F 51% 30.03 in 10.0 mi North 13.8 mph - N/A   Partly Cloudy
6:54 PM 84.0 °F 85.4 °F 64.0 °F 51% 30.01 in 10.0 mi North 12.7 mph - N/A   Partly Cloudy
7:54 PM 81.0 °F 82.5 °F 64.0 °F 56% 30.02 in 10.0 mi NNE 8.1 mph - N/A   Partly Cloudy
8:54 PM 79.0 °F - 64.9 °F 62% 30.04 in 10.0 mi NE 4.6 mph - N/A   Mostly Cloudy
9:54 PM 78.1 °F - 64.9 °F 64% 30.04 in 10.0 mi Calm Calm - N/A   Mostly Cloudy
10:54 PM 75.9 °F - 66.0 °F 71% 30.04 in 10.0 mi North 3.5 mph - 0.00 in   Overcast
11:54 PM 75.9 °F - 66.0 °F 71% 30.04 in 10.0 mi NNW 8.1 mph - N/A Thunderstorm Mostly Cloudy